Regional Weather Roundup
Issued by NWS

Home | Current Version | Previous Version | Text Only | Print | Product List | Glossary On
Versions: 1 2 3 4 5 6 7 8 9 10 11 12 13 14 15 16 17 18 19 20 21 22 23 24 25 26 27 28 29 30 31 32 33 34 35 36 37 38 39 40 41 42 43 44 45 46 47 48 49 50
000
ASUS43 KMPX 011810
RWRMN
WEATHER ROUNDUP FOR MINNESOTA
NATIONAL WEATHER SERVICE TWIN CITIES/CHANHASSEN MN
1200 PM CST SUN FEB 01 2015


NOTE: "FAIR" INDICATES FEW OR NO CLOUDS BELOW 12,000 FEET WITH NO
SIGNIFICANT WEATHER AND/OR OBSTRUCTIONS TO VISIBILITY. N/A MEANS
CURRENT SKY AND/OR WEATHER CONDITIONS ARE NOT AVAILABLE.

MNZ060>063-068>070-011900-
   Twin Cities Metro

CITY           SKY/WX    TMP DP  RH WIND       PRES   REMARKS
TWIN CITIES    CLOUDY    15   0  51 NE16G28   30.24F WCI  -1
6HR MIN TEMP:  13; 6HR MAX TEMP:  15; 6HR PCP:  0.01;

ST PAUL        CLOUDY    15   1  53 NE18G25   30.27S WCI  -2
CRYSTAL        CLOUDY    16   1  51 NE15G25   30.25S WCI   1
BLAINE         CLOUDY    16   3  57 N17G25    30.25  WCI   0
LAKEVILLE      CLOUDY    12   3  67 NE16G22   30.21F WCI  -4
EDEN PRAIRIE   CLOUDY    15   0  51 NE14G26   30.22F WCI   0
6HR MIN TEMP:  13; 6HR MAX TEMP:  15; 6HR PCP: TRACE;

SOUTH ST PAUL  CLOUDY    16   2  54 NE12G20   30.24F WCI   2
LAKE ELMO      FAIR      18   3  53 NE16G24   30.24F WCI   3
$$
MNZ001>005-007-008-013>017-022>024-027-028-011900-
   Northwest Minnesota

CITY           SKY/WX    TMP DP  RH WIND       PRES   REMARKS
BEMIDJI        SUNNY     -3 -15  57 N7        30.41F WCI -17
HALLOCK        SUNNY     -8 -17  65 NW6       30.57S WCI -21
ROSEAU         SUNNY     -8 -17  65 CALM      30.51F
WARROAD        SUNNY     -9 -20  59 CALM      30.50F
THIEF RVR FALL SUNNY     -6 -17  59 CALM      30.49F
CROOKSTON      SUNNY     -6 -15  65 N7        30.54F WCI -20
FOSSTON        SUNNY      0 -11  60 N9        30.46F WCI -16
DETROIT LAKES  SUNNY      3 -13  47 NE8       30.41F WCI -10
MOORHEAD       SUNNY      0 -11  60 N16       30.50F WCI -21
PARK RAPIDS    SUNNY      1 -17  42 N10       30.37F WCI -15
MAHNOMEN       FAIR      -2 -14  55 N10       30.43F WCI -18
$$
MNZ006-009>011-018-025>026-011900-
   North Central Minnesota

CITY           SKY/WX    TMP DP  RH WIND       PRES   REMARKS
BAUDETTE       SUNNY    -10 -19  64 NW7       30.46F WCI -25
FLAG ISLAND    SUNNY    -13 -20  70 N3        30.49F
INTL FALLS     SUNNY     -6 -16  61 N3        30.44F
6HR MIN TEMP: -26; 6HR MAX TEMP:  -6;

WASKISH        SUNNY     -2 -15  55 CALM      30.45F
BIG FORK       SUNNY     -2 -17  50 N8        30.40F WCI -17
LONGVILLE      SUNNY      0 -15  50 N5        30.38F WCI -10
GRAND RAPIDS   PTSUNNY    0 -15  50 N9        30.35F WCI -16
CRANE LAKE     SUNNY     -8 -18  59 NE5       30.45F WCI -19
ORR            SUNNY     -6 -18  54 CALM      30.36F
COOK           SUNNY     -4 -18  50 N7        30.38F WCI -18
WALKER         FAIR      -2 -15  53 N5        30.40F WCI -12
$$
MNZ012-019>021-037-011900-
   Northeast Minnesota

CITY           SKY/WX    TMP DP  RH WIND       PRES   REMARKS
DULUTH         SUNNY      6 -15  37 N10       30.30F WCI  -9
6HR MIN TEMP:  -3; 6HR MAX TEMP:   6;

ELY            SUNNY     -4 -17  54 NE5       30.36F WCI -15
HIBBING        MOSUNNY    1 -17  42 VRB5      30.36F WCI  -9
EVELETH        SUNNY      1 -15  46 N8        30.36F WCI -12
DULUTH HARBOR  MOSUNNY   12  -2  52 N16G22    30.39S WCI  -4
TWO HARBORS    MOSUNNY   10 -11  37 N10       30.33F WCI  -3
SILVER BAY     MOSUNNY    9 -17  31 NE9       30.34F WCI  -5
GRAND MARAIS     N/A      7 -14  37 NE5       30.41F WCI  -2
G MARAIS ARPRT SUNNY      0 -18  42 N13       30.26F WCI -18
$$
MNZ029>031-032-039>041-046>048-054>057-064-011900-
   West Central Minnesota

CITY           SKY/WX    TMP DP  RH WIND       PRES   REMARKS
FERGUS FALLS   SUNNY      3 -15  43 N9        30.45F WCI -11
WHEATON        PTSUNNY    0  -9  65 NW18G25   30.45F WCI -22
MORRIS         MOSUNNY   10  -2  56 N17       30.36S WCI  -7
ALEXANDRIA     FAIR       7  -2  66 N12       30.33F WCI  -8
ELBOW LAKE     FAIR       4  -7  58 N13       30.38S WCI -13
WADENA         SUNNY      3 -11  51 N14       30.36F WCI -15
GLENWOOD       MOSUNNY   10   0  61 N14G21    30.32S WCI  -5
APPLETON       MOSUNNY   10   0  61 N21G26    30.36S WCI  -9
BENSON         CLOUDY    12   0  57 NE14G20   30.34S WCI  -3
ORTONVILLE     MOSUNNY    3  -8  60 N21G28    30.39S WCI -18
MADISON        MOSUNNY   10   1  67 N22G28    30.36S WCI  -9
WILLMAR        FAIR      12   1  62 NE21G26   30.29F WCI  -6
$$
MNZ033>034-036-042>043-049>051-058-059-011900-
   Central Minnesota

CITY           SKY/WX    TMP DP  RH WIND       PRES   REMARKS
ST CLOUD       MOSUNNY   11   0  61 N17G23    30.30F WCI  -6
6HR MIN TEMP:   5; 6HR MAX TEMP:  12;

SAUK CENTRE    FAIR      10  -1  60 N13G18    30.31F WCI  -5
PAYNESVILLE    MOSUNNY    8  -1  66 N17G23    30.29F WCI -10
AITKIN         SUNNY      9 -15  33 NE10      30.33F WCI  -6
PINE RIVER     SUNNY      1 -13  51 N12       30.39F WCI -15
BRAINERD       SUNNY      6  -7  54 N12       30.34F WCI  -9
STAPLES        SUNNY      5  -9  51 N10       30.35F WCI -10
LONG PRAIRIE   FAIR       9   0  66 N13       30.32F WCI  -7
LITTLE FALLS   SUNNY     10  -2  56 N9G17     30.33F WCI  -2
LITCHFIELD     PTSUNNY   12   3  67 NE18G24   30.27S WCI  -5
BUFFALO        PTSUNNY   14   4  62 NE15G23   30.28S WCI  -1
MAPLE LAKE     PTSUNNY   14   5  68 NE16      30.28F WCI  -2
$$
MNZ037-044-045-052-053-011900-
   East Central Minnesota

CITY           SKY/WX    TMP DP  RH WIND       PRES   REMARKS
PRINCETON      PTSUNNY   12   1  62 N14       30.29F WCI  -3
MORA           MOSUNNY   10   0  61 NE8G17    30.32F WCI  -1
CAMBRIDGE      PTSUNNY   14   3  62 N7G16     30.27F WCI   4
RUSH CITY      CLOUDY    13   4  68 N14       30.29F WCI  -2
MOOSE LAKE     PTSUNNY   10  -6  48 NE13      30.31F WCI  -5
HINCKLEY       FAIR      14   3  62 N15       30.30F WCI  -1
CLOQUET        MOSUNNY    5 -17  36 N8        30.32F WCI  -8
MCGREGOR       SUNNY      5 -13  43 N12       30.35F WCI -11
$$
MNZ071>073-080-081-089-090-097-098-011900-
   Southwest Minnesota

CITY           SKY/WX    TMP DP  RH WIND       PRES   REMARKS
MONTEVIDEO     PTSUNNY   12   1  62 NE21G29   30.32F WCI  -6
GRANITE FALLS  PTSUNNY   13   4  66 N18G28    30.31S WCI  -4
CANBY          PTSUNNY    7  -1  70 N20G29    30.34S WCI -12
MARSHALL       CLOUDY    10   0  61 N22G30    30.28S WCI  -9
REDWOOD FALLS  CLOUDY    13   3  64 N12G23    30.26F WCI  -1
OLIVIA         CLOUDY    14   5  67 N18       30.26F WCI  -3
PIPESTONE      PTSUNNY    7   1  78 N17G24    30.21R HAZE    WCI -12
WINDOM         LGT SNOW  10   7  85 N28       30.17S WCI -11
WORTHINGTON    CLOUDY    19   3  49 N23G30    30.17R VSB 3/4 WCI   2
JACKSON        CLOUDY    14   9  79 N23G30    30.15R HAZE    WCI  -5
TRACY          LGT SNOW  11   6  80 N20G25    30.25R WCI  -7
SLAYTON        LGT SNOW   8   4  82 N24       30.20S WCI -13
$$
MNZ065>067-074>077-082>085-091>093-011900-
   South Central Minnesota

CITY           SKY/WX    TMP DP  RH WIND       PRES   REMARKS
MANKATO        CLOUDY    14   7  73 N17       30.18S WCI  -3
NEW ULM        LGT SNOW  12   5  73 NE17G24   30.21S WCI  -5
ST JAMES       LGT SNOW  16  10  79 N20       30.20S WCI  -1
FAIRMONT       CLOUDY    16   9  73 N18       30.13S VSB 1   WCI  -1
GLENCOE        CLOUDY    16   5  61 NE13G18   30.23F WCI   2
FARIBAULT      CLOUDY    12   7  79 N17       30.18F HAZE    WCI  -5
OWATONNA       LGT SNOW  12   7  79 N22G29    30.14F WCI  -7
WASECA         LGT SNOW  14   9  79 N25G31    30.15F WCI  -5
ALBERT LEA     LGT SNOW  12   9  85 NE21G28   30.09S VSB 3/4 WCI  -6
$$
MNZ078>079-086>088-094>096-011900-
   Southeast Minnesota

CITY           SKY/WX    TMP DP  RH WIND       PRES   REMARKS
ROCHESTER      SNOW      12   7  80 NE24      30.08F VSB 1/2 WCI  -8
6HR MIN TEMP:  12; 6HR MAX TEMP:  17; 6HR PCP:  0.08;

RED WING       CLOUDY    16   1  53 NE6       30.21F WCI   7
STANTON        CLOUDY    15   5  66 NE14G21   30.19S WCI   0
DODGE CENTER   LGT SNOW  12   9  85 NE20G30   30.10F WCI  -6
WINONA         CLOUDY    16  10  79 NE9G20    30.17F HAZE    WCI   4
AUSTIN         LGT SNOW  12   9  85 NE17G25   30.06F WCI  -5
PRESTON        CLOUDY    12   8  82 NE16G24   30.06F WCI  -4
$$
ABBREVIATIONS USED IN REMARKS
   TC - TEMPERATURES IN CELSIUS
  WCI - WIND CHILL INDEX
   HX - HEAT INDEX
  VSB - VISIBILITY
$$


USA.gov is the U.S. government's official web portal to all federal, state and local government web resources and services.